Showing default

GAOFEN 2, 40118

Orbit data source: Space-Track

GAOFEN 2, 40118 is a payload satellite owned by GGKGJ (CN) in SSO that was launched on Tue, 19 Aug 2014 UTC via a CHANG ZHENG 4B launch vehicle from the Taiyaun Space Center, China (TSC). Payload-class satellites include a variety of spacecraft equipped with specific instruments for various scientific and technological missions. These include communications satellites like Starlink; space stations such as the ISS; scientific satellites like the Hubble; Earth observation satellites from companies like Planet Labs, Umbra, and HawkEye 360; GPS; miniature CubeSats for education and research; and military/defense satellites.

Loading next visibility...
Identifier
40118, 2014-049A
Orbit
SSO
Country
Flag of CNCN / PRC
Related business
Manufacturer
DFH
Mission
Operational Civil Imaging
Bus & Motor
LS-3000A, AOCS
Mass
2,100 kg wet, 2,100 kg dry
Launch date (UTC)
2014-08-19 (11 years ago)
Launch vehicle
CHANG ZHENG 4B
Launch site
Taiyaun Space Center, China (TSC)
Object type
Payload
Rocket body
Debris
Shape & HBR
Box + 2 Pan, 2.0 m
Radar Cross Section
4.991 m², Large (>1 m²)

Expand to show TLE details & history
Last TLE update: 9 hours ago

TLE from 9 hours ago
0 GAOFEN 2
1 40118U 14049A   25309.97610463  .00001348  00000-0  18304-3 0  9992
2 40118  98.0435   9.0726 0006333 229.3337 130.7325 14.80501370606207
Epoch: 2025-11-05T23:25Z
TLE epoch observation values (Epoch: 2025-11-05T23:25:35.440Z)
Latitude
0.00002°
Longitude
-27.76612°
Altitude
633.657 km
Speed
7.54 km/s
True Right ascension
00h 36m 17s
True Declination
0° 00' 00"
Sunlit
Object was in full shadow at epoch
Visualization orbit readout
Latitude
Unknown
Longitude
Unknown
Altitude
Unknown
Speed
Unknown
Apparent Right ascension
Unknown
Apparent Declination
Unknown
Sunlit
N/A
Visualization observer readout
Local Sidereal Time
04:46:05
Azimuth
Unknown
Elevation
Unknown
Doppler factor
Unknown
Orbital elements
Apogee altitude
629.224 km
Perigee altitude
620.354 km
Semi-major axis
7,002.926 km
Eccentricity
0.00063
Inclination
98.0435°
RAAN
9.0726°
Arg. of periapsis
229.3337°
True anomaly
130.78746°
Mean anomaly
130.7325°
Eccentric anomaly
130.75998°
Mean motion
3.7036 °/min
Orbital period
97.2 mins
BSTAR
0.00018304
Loading maneuver chart data...
Computing Atmospheric mass density...
Loading historical data...
Loading historical data...
Loading historical data...
Loading historical data...
Loading historical data...
Loading historical data...
Loading historical data...
Other satellites on launch #49 in the year 2014 (2014-08-19 UTC)

Documentation

Showing up to 5 results
|